Location: Atlanta
(33.7490°N, 84.3880°W)
Time: 09:27:03
(UTC-04:00)

Daily predictions for brighter satellites

Satellite Brightness Start Highest point End
(mag) Time Altitude Azimuth Time Altitude Azimuth Time Altitude Azimuth
Cosmos 1464 Rocket 4.1 19:36:34 10° S 19:42:40 58° E 19:48:43 10° NNE
Cosmos 2034 Rocket 4.4 19:37:06 10° SSE 19:42:55 42° E 19:48:48 10° NNE
SL-16 R/B 3.3 19:40:40 10° SW 19:46:10 51° WNW 19:51:43 10° N
Cosmos 1378 3.1 19:47:17 10° N 19:51:00 71° E 19:54:42 10° SSE
Cosmos 1408 Rocket 3.9 19:47:35 10° N 19:51:40 40° E 19:55:43 10° SSE
SKYMED 2 3.9 19:48:16 10° N 19:52:36 73° WNW 19:56:55 10° SSW
Cosmos 1766 3.7 19:50:27 10° SSW 19:54:22 68° W 19:58:21 10° N
Helios 1A 4.3 19:55:58 10° ESE 19:59:05 21° ENE 20:02:13 10° NNE
IDEFIX/ARIANE 42P 4.0 19:55:01 10° S 19:59:59 44° W 20:05:00 10° NNW
Timation 1 Rocket 4.4 19:58:24 10° NNW 20:04:23 90° ENE 20:10:21 10° SSE
Atlas Centaur 2 4.2 19:58:37 10° W 20:06:19 39° SSW 20:13:51 10° SE
Meteor 1-28 Rocket 3.0 20:06:17 10° NNE 20:10:01 79° E 20:13:43 10° S
Meteor 1-29 3.8 20:08:35 10° NE 20:11:40 28° E 20:14:42 10° SSE
GPS 2-04 Rocket1 2.3 20:09:06 10° W 20:12:32 79° N 20:15:05 18° ENE
SEDSat Delta rocket 4.2 20:07:42 10° W 20:14:09 70° S 20:19:42 16° ESE
NOAA 12 4.1 20:09:32 10° SSE 20:14:43 67° ENE 20:19:58 10° N
SAR-Lupe-1 3.9 20:12:35 10° SSE 20:16:07 79° ENE 20:19:41 10° N
Resurs 1-3 4.3 20:15:45 10° SE 20:19:38 32° ENE 20:23:31 10° N
ASTEX 1 4.2 20:15:41 10° NNE 20:19:54 28° E 20:24:05 10° SSE
Cosmos 1805 3.4 20:16:04 10° S 20:19:59 79° W 20:23:56 10° N
Cosmos 1452 Rocket 3.5 20:17:13 10° NNW 20:22:29 89° ENE 20:27:43 10° SSE
Cosmos 1743 Rocket 3.9 20:18:18 10° N 20:22:30 41° E 20:26:38 10° SSE
ALOS 3.3 20:20:15 17° ESE 20:22:35 26° ENE 20:26:25 10° NNE
Cosmos 1943 3.3 20:21:14 10° S 20:26:39 51° ESE 20:32:04 10° NNE
Resurs 01 Rocket 1.7 20:23:21 10° SSE 20:27:40 52° ENE 20:32:00 10° N
CENTAUR R/B 2.4 20:23:06 10° SSW 20:28:55 69° ESE 20:35:26 10° NE
Cosmos 2369 Rocket 3.2 20:24:23 10° N 20:29:08 27° ENE 20:31:02 22° E
Gbstr 26 Del rocket 3.3 20:27:08 10° SW 20:31:19 74° NW 20:36:28 10° NE
Helios 1B rocket 2.3 20:27:45 10° NNE 20:31:52 75° ESE 20:35:58 10° S
Cosmos 1953 3.3 20:29:47 10° SSW 20:33:39 49° W 20:37:31 10° N
Cosmos 1603 4.5 20:28:20 10° SW 20:33:56 56° WNW 20:39:36 10° NNE
ISS -1.2 20:32:06 10° W 20:34:52 25° NW 20:37:38 10° NNE
Delta 168 4.4 20:33:07 10° WSW 20:36:56 31° S 20:39:36 21° SE
Cosmos 1733 3.4 20:34:38 10° SSE 20:38:20 47° E 20:42:05 10° NNE
Cosmos 1420 Rocket 3.9 20:36:21 10° NNW 20:41:40 73° ENE 20:46:52 11° SSE
Cosmos 1470 2.6 20:41:37 10° S 20:45:29 77° E 20:49:22 10° N
BREEZE-M TANK 3.7 20:39:57 10° WNW 20:46:43 43° SW 20:48:39 20° SSE
Nadezhda 4 Rocket 3.9 20:43:57 10° N 20:50:13 85° E 20:56:24 10° S
Cosmos 1674 2.6 20:46:24 10° N 20:50:16 65° E 20:51:27 40° SSE
Spot 2 Rocket 3.5 20:46:31 10° SSE 20:51:33 83° WSW 20:56:36 10° NNW
GP-B 4.1 20:50:12 10° NNE 20:52:57 30° NE 20:52:57 30° NE
BREEZE-M DEB (TANK) 4.5 20:35:09 10° NW 20:54:43 69° SW 20:58:16 23° SSE
ASTRO E2 3.9 20:52:37 10° W 20:56:15 32° SSW 20:57:04 29° S
Cosmos 1092 Rocket 3.8 20:54:03 10° N 21:00:14 73° E 21:06:21 10° SSE
Cosmos 2151 4.3 20:59:26 10° N 21:01:36 26° NNE 21:01:36 26° NNE
Cosmos 2142 Rocket 4.4 20:58:42 10° S 21:05:01 71° E 21:11:23 10° N
Cosmos 158 Rocket 4.1 21:03:25 10° SSW 21:08:17 69° WNW 21:13:08 10° NNE
Meteor 1-16 Rocket 4.0 21:04:01 10° S 21:09:14 62° E 21:14:29 10° NNE
Cosmos 1655 Rocket 4.3 21:04:43 10° N 21:10:10 42° ENE 21:10:10 42° ENE
Cosmos 2026 Rocket 4.1 21:05:19 10° N 21:11:13 48° E 21:11:21 48° E
FengYun 1-2 T 4.4 21:06:15 10° S 21:11:44 72° WSW 21:17:13 10° NNW
Cosmos 1634 Rocket 3.9 21:05:46 10° S 21:12:01 86° E 21:18:15 10° N
USA 215 3.7 21:10:21 10° NE 21:16:45 59° NW 21:23:07 10° WSW
OAO 3 Rocket 3.4 21:20:14 10° W 21:24:38 63° SW 21:24:38 63° SW
Meteor 1-11 4.4 21:20:24 10° N 21:25:16 54° NE 21:25:16 54° NE
OAO 1 Rocket 4.3 21:21:00 10° W 21:26:23 86° S 21:26:25 86° S
Cosmos 2195 Rocket 4.4 21:27:10 10° N 21:33:33 87° E 21:34:51 60° S
FENGYUN 3A 4.1 21:32:29 30° SSW 21:35:01 58° W 21:40:21 10° NNW
ALOS 4.2 21:58:48 23° WSW 21:59:54 25° W 22:03:46 10° NW
Cosmos 1943 Rocket 3.6 21:59:57 10° NNW 22:02:43 30° NNW 22:02:43 30° NNW
Cosmos 2369 Rocket 3.5 22:08:02 10° NW 22:12:52 35° W 22:12:52 35° W
